{"data":{"norad_id":59338,"epoch":"2026-09-21T10:45:25.836480Z","epoch_age_seconds":80317,"freshness":"FRESH","line1":"1 59338U 24057U   26264.44821570 -.00000787  00000+0 -19063-4 0  9993","line2":"2 59338  43.0021 161.8932 0001429 274.1583  85.9105 15.27575227139774","mean_motion":15.27575227,"eccentricity":0.0001429,"inclination_deg":43.0021,"raan_deg":161.8932,"arg_perigee_deg":274.1583,"mean_anomaly_deg":85.9105,"bstar":-1.9063e-5,"rev_number":13977,"period_min":94.267043255736,"perigee_km":482.08292262048,"apogee_km":484.04385369141,"semimajor_km":6861.2003881559,"source":"CELESTRAK","updated_at":"2026-09-22T09:00:48.901662Z"}}